Location: Lake Sonoma
(38.7200°N, 123.0564°W)
Time: 10:10:23
(UTC-07:00)

ISS - All Passes

Search period start: 24 June 2017 00:00
Search period end: 04 July 2017 00:00
Orbit: 401 x 408 km, 51.6° (Epoch: 25 June)

Date Brightness Start Highest point End Pass type
(mag) Time Alt. Az. Time Alt. Az. Time Alt. Az.
24 Jun - 09:41:18 10° SW 09:44:33 82° NW 09:47:51 10° NE daylight
24 Jun - 11:19:25 10° WNW 11:21:28 15° NNW 11:23:32 10° NNE daylight
24 Jun - 14:34:44 10° NNW 14:36:45 15° NNE 14:38:46 10° ENE daylight
24 Jun - 16:10:24 10° NW 16:13:41 77° NE 16:16:59 10° SE daylight
25 Jun - 08:49:15 10° SSW 08:52:25 48° SE 08:55:35 10° ENE daylight
25 Jun - 10:26:26 10° W 10:29:04 22° NNW 10:31:42 10° NNE daylight
25 Jun - 13:43:01 10° N 13:44:15 12° NNE 13:45:30 10° NE daylight
25 Jun - 15:18:19 10° NW 15:21:27 40° NNE 15:24:35 10° ESE daylight
25 Jun - 16:55:16 10° W 16:57:45 20° SW 17:00:13 10° S daylight
26 Jun - 07:57:40 10° S 08:00:20 23° SE 08:03:02 10° ENE daylight
26 Jun - 09:33:40 10° W 09:36:42 34° NNW 09:39:45 10° NE daylight
26 Jun - 11:13:01 10° NNW 11:13:58 11° NNW 11:14:55 10° N daylight
26 Jun - 14:26:21 10° NNW 14:29:07 24° NNE 14:31:53 10° E daylight
26 Jun - 16:02:34 10° WNW 16:05:41 39° SW 16:08:47 10° SSE daylight
27 Jun - 07:07:00 10° SSE 07:08:20 12° SE 07:09:40 10° ESE daylight
27 Jun - 08:41:10 10° WSW 08:44:25 63° NW 08:47:41 10° NE daylight
27 Jun - 10:19:37 10° NW 10:21:26 14° NNW 10:23:14 10° NNE daylight
27 Jun - 13:34:26 10° NNW 13:36:41 17° NNE 13:38:56 10° ENE daylight
27 Jun - 15:10:14 10° NW 15:13:32 83° SW 15:16:49 10° SE daylight
28 Jun - 07:48:59 10° SW 07:52:12 63° SE 07:55:27 10° ENE daylight
28 Jun - 09:26:30 10° WNW 09:28:56 19° NNW 09:31:24 10° NNE daylight
28 Jun - 12:42:38 10° NNW 12:44:11 13° NNE 12:45:44 10° NE daylight
28 Jun - 14:18:04 10° NW 14:21:17 49° NE 14:24:30 10° ESE daylight
28 Jun - 15:55:25 10° W 15:57:28 16° SW 15:59:32 10° S daylight
29 Jun - 06:57:10 10° SSW 07:00:04 30° SE 07:02:59 10° ENE daylight
29 Jun - 08:33:37 10° W 08:36:31 29° NNW 08:39:27 10° NNE daylight
29 Jun - 10:13:27 10° NNW 10:13:52 10° N 10:14:17 10° N daylight
29 Jun - 11:51:11 10° N 11:51:36 10° N 11:52:02 10° NNE daylight
29 Jun - 13:26:01 10° NNW 13:28:57 29° NNE 13:31:52 10° E daylight
29 Jun - 15:02:28 10° WNW 15:05:24 30° SW 15:08:21 10° SSE daylight
30 Jun - 06:06:00 10° SSE 06:08:00 15° SE 06:10:00 10° E daylight
30 Jun - 07:40:59 10° WSW 07:44:10 50° NW 07:47:23 10° NE daylight
30 Jun - 09:19:45 10° NW 09:21:17 13° NNW 09:22:48 10° NNE daylight
30 Jun - 12:34:03 10° NNW 12:36:31 19° NNE 12:38:58 10° ENE daylight
30 Jun - 14:10:00 10° WNW 14:13:15 64° SW 14:16:30 10° SE daylight
01 Jul - 06:48:38 10° SW 06:51:54 82° SE 06:55:10 10° NE daylight
01 Jul - 08:26:30 10° WNW 08:28:44 17° NNW 08:30:58 10° NNE daylight
01 Jul - 11:42:11 10° NNW 11:43:59 14° NNE 11:45:47 10° NE daylight
01 Jul - 13:17:44 10° NW 13:21:00 63° NE 13:24:15 10° ESE daylight
01 Jul - 14:55:40 10° WSW 14:57:05 12° SW 14:58:30 10° SSW daylight
02 Jul - 05:56:39 10° SSW 05:59:41 38° SE 06:02:46 10° ENE daylight
02 Jul - 07:33:30 10° W 07:36:15 24° NNW 07:39:01 10° NNE daylight
02 Jul - 10:50:28 10° N 10:51:23 11° NNE 10:52:19 10° NNE daylight
02 Jul - 12:25:36 10° NW 12:28:39 34° NNE 12:31:41 10° E daylight
02 Jul - 14:02:18 10° WNW 14:05:01 24° SW 14:07:43 10° S daylight
03 Jul - 05:05:09 10° S 05:07:33 19° SE 05:09:59 10° E visible
03 Jul - 06:40:43 10° WSW 06:43:49 40° NNW 06:46:57 10° NE daylight
03 Jul - 08:19:48 10° NW 08:21:00 12° NNW 08:22:14 10° N daylight
03 Jul - 11:33:34 10° NNW 11:36:11 22° NNE 11:38:50 10° E daylight
03 Jul - 13:09:39 10° WNW 13:12:50 49° SW 13:16:02 10° SSE daylight
